Regional Weather Roundup
Issued by NWS

Home | Current Version | Previous Version | Graphics & Text | Print | Product List | Glossary On
Versions: 1 2 3 4 5 6 7 8 9 10 11 12 13 14 15 16 17 18 19 20 21 22 23 24 25 26 27
000
ASUS45 KTFX 270510
RWRMT
MONTANA REGIONAL WEATHER ROUNDUP
NATIONAL WEATHER SERVICE GREAT FALLS MT
1100 PM MDT FRI MAY 26 2017

NOTE: "FAIR" INDICATES FEW OR NO CLOUDS BELOW 12000 FEET WITH NO
SIGNIFICANT WEATHER AND/OR OBSTRUCTIONS TO VISIBILITY.

MTZ001>007-043-270600-
WEST OF THE DIVIDE

CITY           SKY/WX    TMP DP  RH WIND       PRES   REMARKS
KALISPELL      PTCLDY    50  43  77 CALM      29.97R
MISSOULA       PTCLDY    52  41  66 NE3       30.02R
BUTTE          CLOUDY    46  32  58 SE6       30.08R
MULLAN PASS    CLEAR     46  31  55 NW6       30.10R
ANACONDA         N/A     46  36  66 W5        30.06R
DEER LODGE       N/A     46  39  76 CALM      30.07R
EUREKA           N/A     54  41  62 CALM      29.96R
HAMILTON         N/A     54  41  62 CALM      30.05R
PLAINS           N/A     53  39  59 CALM      30.00R
THOMPSON FALLS   N/A     55  40  57 CALM      30.04R
$$

MTZ008-052>055-270600-
SOUTHWEST MONTANA

CITY           SKY/WX    TMP DP  RH WIND       PRES   REMARKS
BOZEMAN        CLOUDY    50  38  63 SE5       30.05R
DILLON         PTCLDY    50  32  50 CALM      30.06R
ENNIS          MOCLDY    48  32  53 NE6G15    30.11R
$$

MTZ009-010-012-014-046-048-049-054-270600-
EAST SLOPES AND CENTRAL MONTANA

CITY           SKY/WX    TMP DP  RH WIND       PRES   REMARKS
CUT BANK       MOCLDY    46  37  71 W6        29.97R
GREAT FALLS    MOCLDY    51  38  60 SW12      29.99R
MALMSTROM AFB  MOCLDY    51  40  66 SW9       29.99R
HELENA         MOCLDY    50  42  74 SW5       30.03R
CHOTEAU          N/A     50  39  66 W6        30.01R
CONRAD           N/A     46  44  93 W5        30.00R
$$

MTZ011-013-016-021-045-047-050-051-270600-
NORTH CENTRAL MONTANA

CITY           SKY/WX    TMP DP  RH WIND       PRES   REMARKS
HAVRE          CLOUDY    46  38  73 SW6       29.91R
LEWISTOWN      PTCLDY    44  35  70 SE6       30.00R
N BAR RANCH    MOCLDY    41  32  70 NW6       30.03S
CHINOOK          N/A     52  37  58 CALM      29.91R
FORT BENTON      N/A     52  39  62 CALM      29.97R
$$

MTZ017>020-022>027-061-062-270600-
NORTHEAST MONTANA

CITY           SKY/WX    TMP DP  RH WIND       PRES   REMARKS
GLASGOW        CLOUDY    49  41  74 SW6       29.90S
JORDAN           N/A     46  35  65 W6        29.93S
SIDNEY         CLEAR     49  37  63 W9        29.87S
WOLF POINT     CLEAR     50  39  66 W7        29.89R
MALTA          MOCLDY    45  41  87 W9        29.91S
PLENTYWOOD       N/A     50  36  57 W5        29.85S
POPLAR           N/A     50  37  62 W5        29.88S
SCOBEY           N/A     49  31  50 SW10      29.85R
$$

MTZ028>42-056>058-270600-
SOUTHCENTRAL AND SOUTHEAST MONTANA

CITY           SKY/WX    TMP DP  RH WIND       PRES   REMARKS
BAKER          CLOUDY    50  37  61 W9        29.93R
BILLINGS       PTCLDY    53  36  52 SW10      29.99R
LIVINGSTON     MOCLDY    45  37  73 SW5       30.04R
MILES CITY     PTCLDY    51  31  46 NW7       29.93S
BIG TIMBER     MOCLDY    45  37  76 W8        30.05S
EKALAKA          N/A     53  32  45 S1        29.94R
FORSYTH          N/A     57  36  44 CALM      29.95R
LAUREL           N/A     48  35  60 SW2       29.99F
ROUNDUP          N/A     52  37  56 SW3       29.92S
$$

REGIONAL REPORTS...DAKOTAS

CITY           SKY/WX    TMP DP  RH WIND       PRES   REMARKS
WILLISTON      CLEAR     49  39  68 W9        29.85R
MINOT          PTCLDY    56  37  49 W7        29.79R
DICKINSON      CLOUDY    47  33  58 W8        29.87S
BEACH            N/A     48  36  61 W10       29.94R
CROSBY           N/A     54  37  54 W16       29.81S
TIOGA            N/A     48  41  76 W10       29.84S
WATFORD CITY     N/A     50  39  66 W8        29.85S
BISMARCK       CLOUDY    53  38  56 SW7       29.86R
GRAND FORKS    CLEAR     51  43  74 SW8       29.77S
FARGO          CLOUDY    55  43  63 SW5       29.81S
BUFFALO SD       N/A     51  41  68 W6        29.89R
RAPID CITY     LGT RAIN  51  49  92 CALM      30.00R
$$

REGIONAL REPORTS...WYOMING/IDAHO/WASHINGTON

CITY           SKY/WX    TMP DP  RH WIND       PRES   REMARKS
GILLETTE       CLOUDY    47  45  93 SW3       30.02S
SHERIDAN       CLOUDY    46  42  86 S5        30.01S
BUFFALO WY     LGT RAIN  46  40  79 W7        30.05S
CODY           PTCLDY    42  37  82 CALM      30.07R
YELLOWSTONE LA   N/A     30  30 100 CALM      30.13R
IDAHO FALLS    PTCLDY    44  41  89 S3        30.11R
SALMON         CLOUDY    54  37  54 NW6       30.03R
BOISE          PTCLDY    59  41  51 SE13      30.04R
SPOKANE        PTCLDY    64  39  39 SW9       29.99R
$$

REGIONAL REPORTS...ALBERTA

CITY           SKY/WX    TMP DP  RH WIND       PRES   REMARKS
EDMONTON       CLEAR     59  39  47 W5        29.82R
CALGARY        MOCLDY    61  36  39 SW5       29.91R
LETHBRIDGE     PTCLDY    48  39  71 SW8       29.91R
MEDICINE HAT   MOCLDY    54  41  62 SW9       29.85S
WATERTON GATE    N/A     48  34  57 S9          N/A
CARDSTON         N/A     50  37  62 SW8         N/A
MILK RIVER       N/A     46  41  81 NW8         N/A
ONEFOUR          N/A     50  37  62 W3          N/A
$$

REGIONAL REPORTS...SASKATCHEWAN

CITY           SKY/WX    TMP DP  RH WIND       PRES   REMARKS
SWIFT CURRENT  LGT RAIN  50  46  87 W14       29.84R
REGINA         PTCLDY    52  41  66 W13       29.77R
SASKATOON      CLEAR     45  37  76 N3        29.76R
CYPRESS HILLS    N/A     45  30  57 W3          N/A
ROCKGLEN         N/A     48  39  71 W10         N/A
$$




USA.gov is the U.S. government's official web portal to all federal, state and local government web resources and services.